星链-35257(STARLINK-35257)

导读 | 豆包AI

STARLINK-35257是美国SpaceX星链星座的成员,于2025年11月6日发射。星链项目旨在构建全球卫星互联网,该卫星继承星链卫星设计,运行于近地轨道,为全球偏远地区、海洋空域等提供高速低延迟网络接入,进一步扩充星链星座规模,提升星座覆盖密度与服务能力。

基本信息
目录编号:
66331
目录名称:
STARLINK-35257
国际标识:
2025-253N
轨道中心:
EARTH
卫星名称:
星链-35257
卫星全名:
星链-35257(STARLINK-35257)
卫星状态:
在轨 (已飞行174 天)
发射日期:
2025-11-06 UTC
国别 :
美国 (US)
星等 :
--
轨道信息
数据来源 国际轨道数据
星历时间: 2026-04-29T03:32:04+0800
10小时前
查看轨道信息
半长轴: 6861.116km
偏心率: 0.0001622
轨道倾角: 43.001°
近地点辐角 269.675°
升交点赤经 289.143°
平近点角 90.391°
近地点: 481.866km
远地点: 484.092km
周期: 94.265分钟
每日圈数: 15.276035
详细信息
固有亮度:
5
最大亮度:
2.5
卫星平台:
Starlink V1.0
覆盖范围:
全球
运营商:
太空探索技术公司
运营商所在国:
美国
制造商(研发单位):
太空探索技术公司
制造商所在国:
美国
使用方式:
暂无
卫星简介
Starlink 计划是 SpaceX 推出的全球卫星互联网项目,通过发射低轨道卫星,为全球尤其是偏远地区提供高速、低延迟的互联网服务。自 2019 年起,Starlink 已部署数千颗卫星,旨在缩小全球数字鸿沟,推动互联网普及。该项目还为军事、航空等行业提供通信支持,带来广泛经济效益。
2D轨道图
3D轨道图
轨道高度分析图
轨道倾角分析图
轨道综合分析图
查看轨道综合分析图